Theta_e
286 286 286 286 286 285 285 285 285 285 284 283 283 283 283 283 282 282 281 281 281 281 281 280 280 280 279 279 278 278 278 278 278 278 277 277 277 277 276 276 276 275 275 275 276 275 275 274 274 274 275 274 274 274 274 274 274 274 274 274 274 274 274 273 272 272 274 277 277 276 277 276 275 276 275 276 276 276 278 276 276 275 276 276 276
286 286 286 286 285 286 285 285 284 284 283 283 283 283 282 282 282 281 281 281 281 281 280 280 280 279 279 278 278 278 278 278 278 278 277 277 276 276 276 275 275 274 274 273 274 274 274 273 273 273 273 273 273 273 273 272 272 272 272 272 272 272 273 272 271 271 270 273 274 275 274 275 273 275 274 274 274 275 275 275 275 275 275 275 276
287 286 286 285 285 285 285 284 283 283 283 283 282 282 282 282 281 281 281 280 281 281 280 280 280 279 279 278 278 278 278 278 278 277 277 276 276 275 275 275 274 273 273 273 272 273 272 272 271 271 272 271 272 272 272 271 271 271 270 271 270 271 271 271 270 269 269 270 272 271 272 273 272 273 274 274 275 275 274 274 274 275 276 276 276
286 286 285 285 285 285 284 284 283 282 282 283 282 282 282 281 281 281 281 280 280 280 280 280 279 279 278 278 278 277 277 277 277 277 277 276 275 275 274 274 274 273 273 272 272 272 272 271 271 270 270 269 269 270 271 270 270 270 270 270 270 270 270 270 270 269 268 267 269 270 271 271 272 273 274 274 274 274 274 274 275 275 275 276 275
286 286 285 285 285 284 284 283 282 282 282 283 282 282 281 281 281 281 280 280 280 279 279 279 279 278 278 278 277 277 277 276 276 276 276 275 275 275 274 274 273 273 273 273 274 272 272 271 271 271 270 269 269 268 269 269 270 269 269 270 270 270 270 270 269 270 268 268 268 270 271 271 272 273 274 273 273 273 274 274 274 274 274 275 276
286 285 285 284 284 283 283 283 283 282 282 282 282 282 281 281 280 280 280 280 279 279 279 278 278 278 278 277 277 277 276 276 276 275 275 275 274 274 274 273 273 272 272 273 273 273 272 272 271 271 270 269 269 269 269 269 269 269 269 269 269 269 269 269 270 269 269 269 269 269 271 270 271 272 273 273 273 272 273 274 274 275 275 274 275
286 285 285 284 284 284 283 283 283 283 283 283 282 282 281 280 280 280 280 280 279 278 278 278 278 278 277 277 277 276 276 275 275 275 274 274 274 274 273 273 273 273 273 272 273 272 272 271 271 270 270 270 270 269 269 269 268 268 268 268 269 269 269 269 269 269 269 269 269 270 269 271 271 270 273 274 273 273 272 272 273 275 275 275 274
285 285 285 284 284 284 284 284 283 283 283 282 281 281 280 280 280 280 279 279 279 278 278 278 277 277 277 276 276 276 275 275 274 274 274 274 274 274 273 273 272 272 271 271 271 271 271 271 271 271 271 271 270 269 269 268 269 268 269 269 269 269 269 270 270 269 269 269 269 269 270 270 271 272 273 273 272 273 274 273 272 273 274 275 275
285 285 285 284 284 285 284 284 283 282 282 281 280 280 280 279 279 279 279 279 279 278 278 277 276 276 275 275 275 275 275 275 275 274 274 274 273 272 272 272 271 271 271 271 271 271 271 272 272 272 272 273 274 273 273 272 270 269 270 270 270 270 270 270 270 269 269 269 269 270 270 270 271 271 271 271 271 271 273 275 273 274 275 275 276
285 285 284 285 285 284 284 282 282 281 280 280 280 280 279 279 279 278 278 278 277 277 277 276 276 275 275 274 274 274 275 275 276 278 277 273 272 272 271 271 271 271 270 270 271 271 271 272 272 274 274 275 275 275 276 276 276 273 271 271 271 270 269 269 269 269 269 268 268 269 269 269 270 271 271 272 273 274 274 274 273 274 275 274 275
285 285 285 285 285 283 282 281 281 280 280 280 280 279 279 278 278 277 277 277 276 276 276 275 275 275 274 274 274 274 274 274 279 281 280 279 273 272 271 270 271 271 270 270 270 271 271 272 272 274 275 275 275 276 277 277 277 278 278 277 275 272 270 269 269 269 268 268 269 270 269 269 271 272 272 273 274 274 274 274 274 274 273 272 270
285 285 285 285 284 282 282 281 279 279 279 279 278 278 278 277 277 277 276 275 275 275 274 274 274 274 274 273 273 273 273 277 281 281 281 280 276 272 271 271 271 270 271 271 271 272 272 272 273 273 273 273 273 273 275 276 276 277 277 277 277 278 278 275 273 272 272 271 272 272 272 272 273 274 274 274 274 275 274 274 274 273 272 272 272
285 285 285 284 283 281 280 280 279 278 278 278 277 277 276 276 276 275 275 275 274 273 274 274 273 274 273 273 273 273 272 279 282 282 281 280 278 274 271 271 271 271 271 271 272 272 273 273 273 273 273 275 274 273 272 272 275 276 276 277 277 278 278 279 279 277 275 274 273 273 273 273 273 273 274 274 276 273 274 273 273 273 273 272 272
284 284 284 283 282 280 280 279 279 278 277 277 276 276 275 276 276 275 275 274 274 274 274 273 274 273 273 273 273 272 271 278 282 282 282 281 279 275 271 271 271 272 272 272 273 273 273 273 273 273 272 272 272 271 271 271 272 272 273 273 273 275 277 278 278 279 278 275 274 272 274 275 273 274 275 277 274 273 273 273 274 273 273 273 274
283 283 282 282 281 280 280 279 278 277 277 276 276 275 275 275 275 275 275 274 274 274 273 273 273 273 272 272 272 271 271 278 281 282 282 282 280 275 271 272 272 273 273 274 274 274 274 273 272 271 270 270 271 272 272 272 272 272 272 272 273 273 274 274 274 275 275 275 275 275 275 276 276 276 276 277 276 276 276 275 275 274 275 276 275
282 282 281 281 280 280 279 278 278 277 276 276 275 275 275 275 275 274 274 274 274 274 273 273 272 272 272 271 271 270 271 279 282 282 282 282 282 275 273 273 273 273 274 274 274 274 273 272 271 270 270 271 274 276 276 275 274 273 273 274 274 275 275 277 279 279 278 277 277 277 277 277 279 278 278 278 277 277 277 277 277 275 274 272 271
281 281 281 280 280 280 279 278 277 276 276 275 275 275 275 275 274 274 273 273 273 273 272 272 272 271 271 270 270 269 270 278 282 282 282 282 281 275 274 274 274 273 273 273 273 273 273 272 272 271 271 272 275 277 277 277 275 274 273 273 273 274 274 276 278 280 280 280 280 280 280 280 281 281 281 282 279 278 276 273 272 273 272 271 271
280 280 280 280 279 278 278 278 277 276 275 274 274 275 275 275 274 273 273 272 272 272 271 270 270 270 270 269 270 269 269 277 282 281 281 282 279 274 274 273 272 272 272 273 273 273 273 275 274 272 272 273 276 277 277 276 274 274 273 272 272 273 274 275 275 275 277 278 278 279 279 279 279 280 279 279 278 277 271 269 270 271 269 270 269
279 279 279 277 277 277 277 276 276 275 274 274 274 274 274 273 273 273 273 272 272 271 270 269 268 269 269 269 272 270 269 276 281 281 281 282 278 274 273 272 272 272 272 272 272 272 272 274 276 276 275 275 277 277 278 276 274 274 274 273 272 272 273 273 272 271 272 273 273 274 273 273 272 270 271 275 276 275 272 271 271 270 269 269 270
278 276 276 276 275 276 276 276 275 274 273 273 273 273 272 271 270 271 271 271 270 269 268 269 268 267 268 268 270 269 269 272 277 281 280 281 279 274 273 272 271 271 272 271 271 272 272 273 275 277 277 276 276 276 277 277 275 275 274 273 271 270 272 271 272 273 273 272 270 270 269 269 269 270 270 270 271 272 272 272 272 272 270 270 270
276 275 275 274 274 274 275 275 274 273 273 273 273 271 271 270 270 269 269 269 268 268 268 268 267 267 267 268 268 267 269 270 275 280 280 281 280 276 273 272 272 271 270 271 271 271 272 273 272 274 275 275 276 276 276 277 277 275 274 272 271 272 274 273 273 273 269 268 267 267 267 268 269 269 269 270 270 271 271 272 272 272 271 271 271
274 274 274 274 273 273 273 273 273 272 272 271 271 270 270 269 269 269 269 268 268 267 267 267 266 266 266 267 267 267 270 273 273 278 279 280 280 278 273 272 272 271 270 270 271 272 272 272 270 272 274 274 275 276 277 277 277 274 273 275 275 276 274 272 269 267 266 265 265 265 266 266 266 267 268 269 269 270 270 271 272 272 273 273 271
274 274 273 273 272 272 272 272 272 271 271 271 271 269 269 268 268 268 268 268 268 267 266 266 266 266 266 267 268 268 269 271 274 275 279 279 280 279 277 275 276 272 271 271 272 272 272 270 270 273 274 274 275 276 276 276 275 273 274 275 275 275 273 266 265 264 264 264 264 264 265 266 266 266 267 267 269 270 270 271 271 271 271 272 272
274 273 273 272 271 271 271 271 271 271 271 271 270 269 268 268 268 268 268 267 267 266 266 266 266 266 265 266 267 267 269 269 273 276 276 279 280 280 278 277 277 274 273 272 272 271 270 270 271 273 274 275 275 274 274 274 272 273 273 274 273 272 266 264 263 263 264 264 264 264 264 265 266 266 266 268 268 269 269 270 270 271 271 272 272
274 273 272 272 271 271 270 270 270 270 270 270 269 268 268 268 267 268 268 268 267 267 266 267 266 266 266 266 266 267 268 269 271 274 277 278 279 280 279 278 278 277 273 272 272 271 272 273 274 274 273 272 272 272 271 270 271 272 272 272 270 264 262 261 262 262 262 263 263 264 264 265 266 266 267 268 268 268 268 269 270 270 271 272 272
273 272 271 271 271 270 270 270 269 270 270 270 270 269 268 268 268 267 267 268 267 267 267 267 267 267 266 266 266 266 268 268 270 272 275 277 277 278 279 279 278 277 274 272 273 274 274 273 272 271 270 269 268 266 266 266 270 270 269 269 265 262 261 261 261 261 262 263 263 263 264 265 266 267 267 267 266 266 267 267 267 268 269 269 269
273 272 271 271 270 270 270 269 269 269 269 270 270 269 269 269 268 268 268 268 267 267 267 267 267 267 266 266 266 266 267 268 269 271 272 273 274 275 276 276 277 276 272 272 271 268 270 269 269 270 268 269 268 268 268 267 265 264 263 263 262 260 261 260 262 262 263 263 263 263 264 265 266 266 265 265 265 266 267 267 267 267 268 269 268
274 273 271 270 269 269 270 269 268 268 269 269 269 268 268 269 269 268 268 268 268 267 267 267 267 267 266 267 267 266 267 267 268 269 270 271 272 273 273 272 272 270 269 268 266 267 266 267 265 262 262 261 261 260 260 261 261 261 261 260 261 261 265 267 267 264 263 264 263 264 264 264 263 263 264 264 265 266 267 267 267 267 268 268 267
273 272 271 270 269 269 269 268 268 268 268 269 269 269 269 269 269 269 270 270 270 269 268 268 268 269 268 268 267 266 266 266 268 272 270 273 271 271 270 270 269 268 270 270 264 263 262 259 257 258 257 257 257 257 257 256 257 258 258 257 257 260 260 258 259 260 261 262 262 262 262 262 263 263 264 264 264 265 267 267 268 267 268 268 267
272 271 270 270 269 268 268 268 268 268 268 268 268 268 271 272 271 270 269 272 274 275 274 269 270 269 269 269 269 267 267 268 273 275 275 275 276 275 274 274 273 271 273 273 266 259 258 257 256 255 256 255 254 255 256 256 256 256 257 262 261 258 259 260 260 261 262 262 262 262 262 262 262 263 263 263 264 265 267 268 267 267 267 266 266
272 271 270 269 269 268 268 267 267 267 268 268 268 267 267 269 273 274 273 273 274 275 275 275 275 274 271 269 271 272 272 274 275 276 276 276 276 276 276 275 275 274 274 266 260 257 256 256 256 255 255 255 255 256 257 257 257 257 257 258 257 259 261 260 260 261 262 262 262 262 263 262 262 263 263 264 264 265 266 267 267 267 266 266 266
273 272 270 269 269 268 268 268 267 267 267 267 267 266 266 266 268 273 274 274 275 275 276 275 276 276 275 272 271 271 274 276 277 277 277 277 277 277 277 276 276 275 273 270 258 256 256 256 255 254 254 254 256 257 257 256 257 257 257 256 258 259 260 260 262 262 261 261 262 262 262 263 263 263 264 264 265 265 266 266 266 266 266 266 266
274 274 272 270 268 267 267 267 267 267 266 266 266 266 266 266 266 267 271 275 276 276 276 276 276 276 275 275 275 274 275 277 278 278 278 278 278 277 277 277 276 274 272 262 258 257 255 255 254 254 254 254 255 255 256 257 257 257 257 257 258 260 261 262 264 262 262 262 263 263 263 263 263 264 265 265 265 265 266 265 266 266 266 266 266
274 274 272 270 268 267 267 267 267 266 267 267 266 266 267 267 267 268 268 269 271 274 277 277 277 276 276 276 276 277 278 278 278 278 278 278 277 277 276 273 274 273 266 258 258 256 256 254 254 254 253 254 255 256 256 256 257 257 258 259 260 261 262 263 262 261 261 262 262 262 263 263 264 264 264 265 266 266 265 265 265 265 265 266 265
274 274 272 271 269 268 267 267 267 266 266 266 266 266 267 268 268 269 269 269 270 270 271 273 276 277 274 276 278 278 278 279 278 278 277 277 277 276 273 266 262 259 258 256 257 256 256 255 254 254 253 254 255 255 256 255 256 257 258 259 260 260 260 260 261 262 262 262 262 262 263 263 264 265 265 265 265 265 265 265 265 265 265 265 265
274 274 273 270 269 269 268 267 267 266 266 266 267 267 268 268 268 269 270 271 271 270 270 272 272 276 277 277 278 279 279 278 277 277 277 277 276 272 261 259 258 257 256 255 255 255 254 253 253 253 253 254 254 255 256 256 258 258 259 260 260 260 259 260 261 262 262 262 262 263 264 264 265 265 266 266 265 265 264 264 265 265 265 265 266
274 273 273 271 269 269 268 267 267 267 268 267 267 267 268 268 269 270 270 270 270 270 270 271 272 273 275 274 277 278 278 277 276 276 276 275 273 265 260 259 257 256 255 255 254 254 253 252 253 252 253 254 255 256 257 257 259 259 261 261 259 259 259 260 262 263 261 261 261 262 263 264 265 265 266 265 265 264 264 264 265 265 265 266 267
273 273 273 271 269 268 267 267 266 268 267 267 267 267 268 268 269 269 270 270 269 269 269 270 271 270 270 271 276 274 273 275 275 273 271 268 260 258 258 257 257 256 255 254 253 252 251 250 251 252 252 253 254 255 257 258 258 259 259 259 259 259 264 263 262 260 260 261 262 263 264 264 265 265 266 265 264 263 263 264 264 264 264 265 265
273 274 274 273 271 268 267 266 266 266 266 266 267 267 267 268 268 269 269 269 269 269 269 269 269 269 270 271 270 270 267 262 260 257 256 256 256 257 256 256 255 255 254 253 252 251 250 250 251 251 251 251 253 254 256 258 259 259 260 259 259 258 258 258 259 260 260 260 261 263 263 264 265 266 266 264 263 263 263 264 264 264 263 264 264
271 271 272 274 269 268 267 266 266 266 266 266 266 267 267 267 268 268 268 268 268 268 268 268 267 268 269 268 265 264 262 259 257 255 255 255 255 255 256 255 255 254 253 252 250 249 249 249 249 249 250 250 250 251 254 256 258 259 259 259 258 258 258 259 259 259 260 261 261 262 263 264 265 266 265 264 263 263 263 263 263 264 264 264 264
271 270 269 271 269 268 266 265 265 265 265 266 266 266 266 267 267 267 267 267 267 266 266 265 265 265 265 265 269 265 260 257 256 256 255 255 254 254 254 254 254 253 252 251 250 248 248 248 248 248 248 249 250 251 253 254 256 258 258 258 258 258 258 258 259 259 260 261 262 262 263 264 265 265 264 264 266 265 263 264 264 264 264 264 264
270 269 267 267 267 266 265 264 265 265 266 265 266 266 266 266 266 266 265 265 264 264 263 263 262 262 266 270 268 266 258 256 256 255 255 254 254 254 253 253 252 252 251 250 249 249 248 248 248 248 248 249 249 251 252 252 253 254 256 258 258 258 258 258 258 259 260 261 262 263 263 264 266 266 265 267 263 263 263 263 263 264 264 264 264
268 267 266 266 266 265 264 264 265 264 265 265 265 266 265 265 265 264 264 264 263 262 261 260 261 264 266 269 266 263 256 255 255 255 254 254 253 253 253 252 251 250 248 247 247 248 248 248 248 248 249 250 250 250 251 252 251 253 254 256 257 258 257 258 258 259 260 262 262 263 264 264 266 265 264 263 263 263 263 263 263 263 264 264 264
266 265 265 264 264 264 264 264 264 264 264 264 264 264 264 264 264 264 263 262 261 260 260 260 262 264 264 264 260 256 255 255 254 254 253 253 252 252 251 250 249 248 247 246 246 246 247 247 248 248 248 249 250 249 250 251 251 251 253 255 257 258 258 258 259 259 261 262 262 263 264 265 266 265 264 263 263 262 262 263 263 263 263 263 264
264 264 263 263 263 263 262 263 263 263 262 263 263 263 262 263 262 262 261 260 259 259 260 261 260 259 257 256 255 255 254 254 253 253 253 253 252 251 250 249 248 247 247 246 246 246 245 246 247 246 248 248 249 249 250 251 251 252 253 254 256 257 257 258 259 261 262 262 263 263 264 266 266 265 264 263 263 263 262 262 263 264 263 263 263
263 263 262 262 261 261 261 262 261 262 262 262 261 261 261 261 261 260 259 259 259 259 258 257 257 256 255 254 253 253 253 253 253 253 252 251 251 250 249 248 247 246 246 246 246 245 246 246 246 247 248 248 249 249 250 250 251 252 253 253 255 256 257 258 260 262 263 263 263 264 266 267 266 265 265 264 263 263 262 263 263 263 263 263 263
262 262 261 261 261 260 260 260 260 260 261 260 260 260 259 259 259 258 258 258 258 257 257 257 255 254 253 252 252 252 252 253 252 252 251 251 250 249 248 247 246 245 244 244 244 245 245 247 247 247 247 248 248 249 250 250 251 252 253 254 255 256 257 260 262 263 263 264 265 267 267 266 265 265 264 264 263 262 262 262 263 263 263 263 263
261 260 260 260 259 259 259 259 259 259 259 259 258 258 258 257 257 257 257 256 256 256 256 255 254 253 252 252 251 251 252 252 252 251 251 250 249 248 247 246 246 245 244 244 244 245 245 245 246 246 247 248 249 249 250 250 251 252 253 254 255 256 259 261 262 263 263 265 267 268 267 266 265 265 264 263 262 262 262 262 262 263 263 263 263
259 259 258 258 258 258 258 258 258 258 257 257 257 256 256 257 256 256 256 257 256 256 256 254 252 252 251 251 251 251 251 251 251 250 250 249 248 247 246 246 246 245 244 244 244 244 244 244 246 246 246 247 247 248 249 250 251 252 253 254 256 259 260 262 263 263 266 267 268 268 267 266 265 265 264 263 263 262 262 262 262 262 263 263 263
258 258 258 258 257 257 258 258 257 257 257 257 256 256 256 256 256 256 256 255 255 255 253 252 252 251 251 250 250 251 251 251 251 250 250 249 248 247 246 246 244 243 244 244 244 244 243 243 243 245 245 246 247 248 249 250 251 252 252 254 257 260 262 264 265 267 267 268 268 267 266 265 265 265 264 263 262 262 262 262 262 262 262 262 262
257 257 257 257 257 257 257 257 256 256 256 256 256 255 255 255 255 255 254 254 253 253 252 252 252 251 251 251 251 251 251 251 250 250 249 248 247 246 246 245 245 244 244 243 243 243 243 242 243 245 246 248 248 249 249 250 251 252 254 257 260 263 265 266 266 267 269 269 268 266 265 265 265 264 264 263 262 262 262 263 262 262 262 262 262
Wind_Speed
14 15 14 15 15 15 16 14 14 12 10 11 12 12 10 11 11 10 8 11 11 12 12 12 12 12 11 11 11 11 11 11 10 10 9 9 8 8 7 7 8 6 7 6 5 5 5 5 4 3 4 3 2 1 1 1 1 3 2 3 5 5 5 7 11 16 15 2 10 6 7 10 11 8 13 10 11 10 10 12 13 11 11 11 13
15 16 15 15 17 17 15 12 11 10 12 12 12 11 11 11 10 9 12 11 12 13 13 12 12 13 12 12 11 11 11 11 10 10 10 10 9 7 8 8 7 7 7 6 6 5 5 5 4 5 5 4 4 3 2 2 2 2 4 3 4 5 4 5 8 10 19 11 9 11 7 9 12 8 11 15 13 14 13 10 10 9 10 10 12
17 14 14 14 16 16 14 12 12 13 14 13 14 13 12 10 10 12 11 10 10 12 13 12 13 13 12 12 11 11 11 11 10 10 10 10 10 8 8 8 9 9 8 7 7 6 6 6 6 6 4 4 4 3 3 3 3 3 4 4 4 4 4 4 6 10 12 16 9 13 10 8 10 14 13 12 14 12 14 12 9 12 10 12 11
14 13 14 16 16 13 14 13 13 14 15 15 16 14 12 11 11 12 12 10 12 10 11 12 12 13 13 12 12 11 11 10 10 9 10 10 10 9 8 8 8 8 9 8 8 8 8 7 6 6 5 5 4 4 4 4 4 4 5 5 5 4 4 4 6 7 10 14 12 8 14 11 11 10 11 14 13 13 11 13 14 11 13 11 13
12 14 14 16 13 14 14 13 14 15 17 14 16 14 13 12 11 13 12 12 12 11 10 10 12 13 13 14 13 12 12 11 11 10 8 8 9 9 9 8 8 8 8 8 8 8 7 7 6 6 6 6 5 5 4 5 5 5 5 5 5 4 4 5 5 7 9 13 15 10 10 13 11 12 12 13 14 12 11 13 13 14 13 13 11
13 13 12 13 13 15 15 14 16 18 18 15 16 15 14 13 13 11 13 13 12 12 13 12 13 14 12 13 12 12 12 12 11 11 10 9 8 8 8 8 8 8 8 8 7 7 6 6 6 7 6 7 6 6 7 7 6 7 7 7 6 6 6 6 7 8 10 13 14 16 10 11 15 11 12 13 13 17 19 14 12 12 13 13 11
13 14 14 15 15 16 15 17 18 17 16 16 14 12 13 13 13 13 12 13 14 13 12 13 11 13 13 12 13 13 12 11 11 10 10 10 10 10 9 8 7 6 6 6 5 5 5 6 6 7 8 8 7 7 6 6 6 7 7 6 6 6 6 7 7 9 11 13 14 14 14 11 10 16 12 11 14 12 17 22 18 9 11 14 16
14 15 15 16 16 17 17 18 17 16 14 12 12 13 12 12 13 12 12 14 14 15 15 15 12 11 12 12 12 11 11 10 10 10 11 11 10 10 9 9 8 7 6 6 6 5 5 6 7 7 8 7 6 6 7 7 6 7 6 6 6 7 8 8 9 10 11 12 13 13 12 13 13 12 13 12 15 13 7 16 23 22 16 17 11
14 14 14 15 17 17 16 13 11 11 11 12 12 13 14 13 12 12 13 13 12 13 13 14 13 12 10 11 11 10 11 12 10 11 10 10 10 10 9 9 9 8 7 7 6 6 6 7 7 7 9 11 13 12 10 10 7 7 7 8 8 8 9 8 8 9 10 11 12 11 13 14 14 13 14 14 10 17 12 13 17 19 18 17 18
14 14 15 18 17 15 12 10 11 11 11 13 14 13 13 13 13 13 13 13 12 12 12 12 13 14 14 12 11 11 11 9 12 20 16 12 11 9 9 9 8 8 8 7 7 8 8 7 7 12 13 14 14 14 15 15 15 11 8 8 8 8 8 7 8 8 8 10 11 12 14 14 14 15 15 12 10 14 19 14 17 15 16 20 17
14 15 18 18 15 11 11 12 12 14 14 13 11 12 13 12 13 13 12 12 13 12 12 13 12 11 13 13 14 12 10 9 21 22 22 20 12 11 11 10 9 9 8 8 8 8 8 8 8 10 12 13 12 15 14 15 14 15 16 15 12 9 8 9 9 10 9 10 12 13 15 17 16 12 13 15 12 12 11 14 16 18 18 17 23
14 16 17 12 10 12 12 12 12 13 11 13 13 12 11 11 12 13 12 13 12 11 13 13 12 12 11 11 12 11 11 16 23 23 22 22 16 9 7 9 9 8 8 8 7 7 8 8 8 8 9 8 6 7 10 13 13 14 15 16 17 19 19 14 11 10 10 9 10 10 10 14 16 15 16 14 18 17 20 17 19 17 20 21 18
14 14 12 11 12 11 11 12 13 12 13 13 12 12 13 13 13 13 14 12 11 13 13 12 12 12 12 14 13 12 10 18 23 24 23 21 20 14 9 8 8 8 8 8 8 7 7 7 8 7 6 13 9 7 7 7 11 15 15 17 19 19 20 23 23 17 12 14 14 17 15 17 19 19 14 17 14 22 18 22 18 19 17 20 23
12 12 10 10 10 11 11 12 13 12 11 11 12 13 13 15 13 11 11 11 13 12 12 14 13 13 13 13 12 11 11 17 23 23 22 22 21 15 8 9 8 7 8 7 7 7 8 8 8 7 5 5 4 5 5 6 7 9 10 11 12 16 20 22 22 24 22 17 18 19 19 16 19 18 20 17 21 18 20 18 21 16 20 19 23
11 11 11 10 9 11 12 12 12 12 12 12 13 13 14 12 13 12 13 14 15 15 15 14 13 13 12 11 10 10 9 19 23 23 23 22 21 15 9 8 7 7 7 7 8 8 8 7 5 4 4 4 5 7 7 8 8 9 10 11 12 12 12 13 14 14 15 16 18 20 21 17 18 21 19 18 18 18 19 23 22 20 20 21 18
9 7 9 10 12 12 12 12 12 12 13 13 14 14 14 14 15 12 11 10 9 9 9 10 13 13 12 11 11 10 9 20 23 23 24 23 23 11 9 9 9 8 8 9 9 8 7 5 5 5 5 6 9 14 11 8 8 9 9 8 7 8 10 14 20 20 16 13 13 13 15 18 22 21 19 15 14 14 15 16 16 16 16 15 17
8 9 10 10 11 11 12 13 13 13 14 15 15 15 15 14 12 10 12 11 12 11 12 11 10 12 12 11 11 9 9 18 24 24 23 24 18 9 10 8 8 9 9 8 8 7 6 6 6 6 7 7 11 13 12 12 7 7 8 8 9 11 12 9 15 20 24 26 29 31 32 32 32 33 32 34 26 21 16 17 18 13 14 17 17
6 7 9 9 10 10 11 12 13 14 14 16 16 13 11 9 11 11 14 13 12 11 10 10 9 10 12 12 11 10 9 16 24 23 23 24 15 10 9 8 8 9 7 7 6 6 8 14 11 8 8 8 11 11 12 10 7 6 8 12 14 10 8 8 7 10 20 27 29 30 30 28 28 29 31 32 33 28 16 18 17 13 18 17 21
6 7 5 4 5 6 7 8 10 11 13 12 11 12 13 12 10 9 9 10 10 9 9 10 9 9 9 10 13 11 9 14 23 22 24 23 15 9 9 9 8 8 8 7 7 6 7 10 13 11 9 8 11 11 12 10 6 8 10 9 9 10 9 7 9 13 13 12 11 11 11 17 16 15 17 29 30 27 19 18 15 14 16 17 16
3 4 5 7 7 8 8 9 9 10 10 9 9 10 9 10 11 11 10 10 10 10 10 10 12 10 9 10 10 10 11 10 15 23 22 23 20 11 9 10 10 10 9 8 7 7 7 7 8 11 10 10 10 11 11 12 9 7 7 8 7 8 7 10 13 12 10 7 9 10 13 13 13 14 15 16 17 16 17 17 16 14 14 16 16
4 4 5 6 7 8 7 9 11 9 9 10 10 9 9 11 11 11 11 9 9 10 11 10 10 9 9 10 9 10 10 11 14 23 22 24 23 18 9 10 9 9 8 8 7 6 6 6 4 7 10 10 10 11 11 12 13 9 6 6 8 11 14 10 9 11 10 10 11 11 12 11 11 11 13 14 14 14 15 17 16 16 15 13 13
4 5 6 6 6 6 6 5 6 8 9 10 11 10 8 9 11 11 10 11 12 12 11 10 10 10 9 9 9 10 11 15 11 20 23 24 23 22 11 10 10 9 8 8 7 7 7 5 5 5 9 10 10 11 12 13 14 8 7 13 18 19 13 7 7 7 8 9 10 10 10 11 10 10 11 12 12 13 15 14 15 14 14 15 16
3 4 5 7 7 7 7 8 8 7 8 9 11 11 9 10 10 10 11 11 12 12 12 11 11 11 10 9 8 9 10 11 16 12 21 23 23 21 20 14 19 10 9 8 8 7 5 6 4 8 9 8 10 11 11 12 10 8 13 15 15 17 12 6 7 8 8 9 10 10 10 10 10 11 11 11 12 11 13 12 12 13 14 14 18
4 4 4 5 6 7 8 9 9 9 10 10 10 11 11 10 10 10 11 12 11 12 10 11 11 11 8 9 7 6 8 8 15 19 17 24 23 23 22 22 21 11 8 6 6 6 5 5 5 9 9 9 8 8 9 8 7 11 13 13 14 12 6 7 6 8 9 9 10 10 10 9 10 11 11 11 12 13 14 14 14 14 15 15 16
4 5 5 5 6 6 6 7 9 9 10 12 12 11 11 12 11 10 11 11 12 12 12 12 13 12 12 13 11 10 8 10 10 16 22 21 23 23 22 22 20 19 11 7 7 6 7 10 9 5 3 2 4 5 5 7 10 11 11 11 9 4 6 6 7 8 9 9 9 10 10 10 10 12 12 13 14 14 14 13 13 14 14 17 18
4 5 5 6 7 7 8 7 7 9 11 10 11 11 13 13 12 11 12 12 12 13 13 13 12 12 12 11 11 11 11 10 10 12 14 17 17 22 22 21 19 17 13 10 13 11 9 7 7 6 5 2 1 0 1 4 8 9 9 8 4 5 5 6 7 8 9 9 10 10 11 10 11 11 13 13 12 12 13 14 13 13 12 13 14
5 5 7 7 7 8 10 9 8 8 9 9 9 10 10 11 11 12 12 12 12 12 12 13 13 12 13 11 10 10 10 10 10 11 10 11 11 13 15 13 17 16 9 7 8 7 7 7 5 6 4 1 1 3 4 5 5 5 4 5 5 5 6 5 8 8 9 9 10 10 10 11 11 12 12 11 12 12 12 14 14 14 13 12 13
8 8 9 8 8 9 10 10 12 11 11 11 11 11 11 13 14 16 17 17 16 15 14 14 15 15 14 13 12 11 11 11 12 12 12 11 11 10 10 10 9 8 8 7 7 6 6 7 7 4 4 4 2 2 3 3 4 4 5 5 5 5 8 12 12 8 9 9 10 10 11 10 11 11 12 12 12 13 13 13 13 15 13 13 12
8 8 8 8 9 9 9 10 10 12 11 11 10 11 13 14 15 13 13 12 16 18 18 16 15 14 14 15 15 14 13 14 14 13 15 18 15 13 12 11 9 8 11 13 9 7 6 6 4 4 3 1 1 2 3 3 5 5 5 5 5 5 5 5 7 8 9 8 9 10 11 11 11 11 11 12 13 13 13 13 14 14 15 12 15
8 9 9 9 9 9 9 9 9 10 11 10 10 8 7 11 9 9 9 13 17 14 13 13 13 12 12 12 14 17 17 14 20 27 25 24 23 20 16 17 15 12 15 19 11 7 5 6 5 4 2 2 2 3 4 3 4 5 5 5 4 5 7 6 7 8 8 9 9 10 11 11 12 11 12 13 14 13 13 14 15 14 14 14 13
9 9 9 10 11 11 10 10 10 10 10 10 9 9 8 8 14 15 11 12 15 17 17 14 16 18 14 13 9 4 8 20 26 25 25 25 24 23 22 21 21 19 20 13 7 7 6 7 5 3 2 3 3 4 3 4 5 4 5 5 4 6 7 7 8 7 8 9 10 10 10 11 12 12 13 13 14 15 13 12 12 14 14 15 15
11 10 10 10 11 11 10 11 10 10 10 10 10 10 10 9 8 12 13 13 18 17 16 15 19 20 17 14 13 10 19 26 27 27 27 26 24 24 23 22 21 22 21 16 9 6 7 7 6 4 4 3 4 3 4 5 6 5 5 4 6 6 6 7 8 7 8 9 10 10 10 11 11 12 13 13 15 14 14 14 14 14 15 14 15
14 12 10 10 10 12 11 11 11 11 11 11 11 11 11 11 11 10 10 15 19 18 20 17 18 18 18 19 20 20 23 25 28 26 26 26 26 24 23 23 23 22 19 10 9 8 6 7 6 5 4 5 4 5 5 5 6 5 5 5 6 7 7 8 9 8 9 10 10 10 10 11 12 13 13 13 13 13 12 13 12 13 14 15 16
16 13 11 12 11 11 12 11 12 12 11 11 11 12 12 12 12 12 11 11 12 14 17 20 21 22 21 21 22 23 26 27 27 27 27 26 26 25 22 17 20 18 13 9 9 8 7 7 6 5 5 4 5 4 5 5 5 5 5 6 6 6 7 8 8 9 9 9 9 10 11 11 11 12 13 12 11 11 13 13 13 13 13 12 14
13 14 17 12 11 12 11 11 11 11 11 11 11 12 12 11 11 12 13 14 14 13 12 14 20 23 19 18 22 26 26 27 27 26 27 26 26 26 23 13 11 8 7 6 8 8 8 7 7 5 4 5 5 5 5 5 4 4 5 6 6 6 7 8 8 9 9 9 9 10 10 11 12 12 11 11 12 13 13 14 14 13 15 14 14
13 12 10 13 11 10 10 11 11 11 11 11 11 11 11 11 12 12 12 11 11 11 11 11 12 18 26 22 26 26 27 26 25 25 26 27 26 25 13 9 9 7 8 6 7 6 6 6 5 4 4 5 4 5 5 5 5 5 5 5 6 6 7 8 9 8 8 9 10 11 12 10 10 11 11 12 13 14 15 15 15 15 16 15 15
11 11 10 10 10 9 9 10 10 11 10 11 11 11 11 11 11 11 11 12 12 12 12 13 13 14 17 14 22 25 28 25 25 24 24 25 23 12 8 9 9 9 8 7 7 7 6 4 4 4 4 5 5 5 5 5 5 5 5 5 5 7 8 8 8 8 9 9 10 10 10 11 12 12 12 13 14 13 13 14 16 16 17 18 20
13 11 10 9 9 10 9 10 10 12 11 11 11 11 11 12 13 13 13 12 14 14 14 14 14 15 16 14 21 15 18 23 24 18 15 14 10 8 8 8 9 9 9 7 7 7 7 5 3 5 5 5 5 5 4 4 4 4 5 5 6 7 12 11 12 10 10 9 10 10 10 10 11 12 12 12 14 14 16 16 17 17 18 18 14
10 15 16 14 12 9 9 9 10 11 11 11 11 12 12 12 12 12 12 12 14 14 14 14 14 14 14 14 14 15 18 12 10 9 8 7 7 7 8 8 8 8 8 7 6 5 5 5 4 4 5 5 5 4 4 4 4 4 5 6 7 7 9 8 9 9 9 9 10 10 10 11 12 12 11 11 14 14 18 15 16 16 17 15 13
10 9 11 15 9 11 9 9 10 10 11 12 11 11 12 12 13 13 13 13 14 13 13 14 13 13 12 13 14 14 14 12 10 11 11 9 8 7 8 9 8 9 9 7 6 5 5 4 4 5 5 5 5 4 4 4 4 5 5 6 7 8 9 9 9 9 10 10 10 10 11 12 13 12 10 11 13 14 16 16 17 15 16 15 16
9 9 7 10 10 9 8 9 10 11 10 11 11 12 12 13 12 11 12 13 13 12 12 11 11 10 11 16 23 18 14 13 12 10 10 10 9 8 8 8 9 8 7 7 7 6 5 5 5 6 5 5 4 3 4 4 5 5 6 6 6 8 8 9 9 10 10 11 11 11 11 12 12 11 11 13 16 18 15 16 15 14 16 15 17
10 7 7 7 9 8 8 9 9 10 10 10 11 11 12 11 11 12 12 13 12 12 12 11 9 9 16 29 25 24 14 9 9 10 9 8 8 8 7 7 6 7 7 7 7 7 5 4 4 4 5 4 3 3 4 5 5 6 5 6 7 8 8 9 9 10 11 11 12 12 12 12 14 14 14 17 14 14 14 14 15 15 17 15 16
8 7 7 8 8 9 9 9 10 10 10 10 9 8 10 11 11 11 11 12 12 13 13 12 10 10 14 23 23 21 11 9 7 10 9 8 8 8 8 7 6 6 5 5 5 5 5 4 4 5 5 5 4 4 5 7 4 5 6 6 7 8 9 9 9 10 10 11 12 13 16 15 13 11 12 13 13 14 14 17 17 16 16 15 14
6 6 7 7 7 7 8 9 9 10 10 11 12 11 12 11 11 12 12 12 11 11 12 13 13 13 12 15 15 12 11 10 9 9 9 9 8 8 7 7 6 6 5 4 4 4 4 4 4 5 4 4 5 5 6 6 5 5 6 6 7 8 9 9 10 11 11 12 13 12 13 13 12 12 12 14 13 16 16 18 18 17 17 16 14
6 7 7 8 8 9 8 8 9 10 10 10 10 10 10 11 12 11 12 12 11 11 11 10 8 9 11 12 12 12 11 10 9 9 8 9 8 7 7 6 6 6 6 4 3 3 4 4 4 3 4 5 5 6 6 6 5 6 6 7 7 8 9 10 11 11 12 13 11 12 13 12 12 12 12 13 14 16 15 16 16 17 17 16 16
5 6 7 7 7 7 8 8 8 10 11 11 11 10 9 9 10 11 10 11 12 12 11 10 9 9 11 13 13 12 10 10 9 8 8 7 7 7 6 6 5 5 4 4 3 3 4 5 4 4 5 6 6 5 6 6 6 6 6 6 8 9 9 10 11 11 13 13 12 13 12 11 12 11 15 15 14 14 15 16 17 14 16 18 17
6 6 7 7 8 8 8 9 9 10 10 9 10 10 10 10 10 10 10 12 11 11 12 10 12 10 12 14 13 12 10 9 9 8 8 8 7 7 6 5 5 4 3 3 2 3 3 3 4 5 6 6 5 6 6 6 6 6 6 7 7 9 9 9 11 12 13 13 13 12 11 12 13 13 14 14 14 15 16 15 15 18 18 14 16
6 6 6 7 8 8 8 8 9 9 9 10 9 10 10 10 10 11 11 11 12 11 10 10 9 8 14 15 13 11 9 9 8 7 7 7 6 6 6 5 5 5 4 2 1 2 2 3 4 5 6 6 5 6 6 6 6 7 7 7 8 8 12 15 12 13 13 12 13 12 12 13 13 13 13 14 15 14 16 16 16 16 17 16 14
6 7 7 8 8 8 9 9 9 9 10 10 10 11 10 11 11 11 11 11 10 9 10 11 11 9 12 15 14 11 9 8 8 7 6 6 6 5 5 5 4 4 3 2 1 1 3 4 5 5 6 5 6 6 7 7 7 7 8 8 10 16 19 21 15 11 18 16 12 10 11 13 14 14 14 14 15 15 15 16 15 16 16 15 16
7 7 8 8 8 8 7 8 8 9 9 10 11 10 10 11 12 12 12 11 11 10 8 8 10 10 14 14 14 11 8 8 8 7 7 6 5 5 5 5 4 3 3 2 2 2 3 4 4 5 5 5 6 6 6 7 7 8 8 9 14 19 20 22 22 23 18 12 12 10 11 13 13 13 12 13 15 17 17 17 17 17 17 17 17
8 8 8 8 8 8 8 9 9 9 9 10 10 11 11 11 11 10 8 10 9 8 8 8 9 8 10 12 10 9 8 7 7 7 6 6 5 5 5 5 3 3 1 2 2 3 3 3 4 4 4 5 6 6 6 7 7 8 11 16 19 20 21 21 16 18 26 20 11 10 11 13 14 13 12 13 14 16 18 19 18 17 17 17 17
Wind_Direction
198 207 199 206 205 207 209 206 206 201 197 198 201 202 196 192 192 190 157 185 172 176 179 180 178 177 175 178 179 178 174 173 173 167 169 169 173 167 163 157 147 143 138 138 138 139 142 138 138 130 124 131 139 129 174 260 314 294 292 296 285 288 289 281 282 287 291 234 300 327 338 336 319 330 313 316 314 312 307 305 304 299 297 294 296
204 207 202 206 204 209 207 202 199 195 200 198 203 200 196 192 185 169 186 182 176 179 179 177 176 175 176 178 180 180 181 176 172 168 169 170 169 167 164 158 150 145 143 146 143 143 144 143 151 148 149 144 154 160 186 200 259 264 274 271 269 278 274 292 281 283 292 309 309 310 332 331 309 325 316 314 308 306 302 298 295 291 294 294 290
209 206 203 205 209 208 202 196 192 195 197 201 204 201 196 188 177 183 183 180 181 180 179 175 174 173 175 177 179 181 180 176 176 172 173 171 169 169 166 162 157 152 154 156 156 153 153 162 168 154 151 150 170 168 177 203 214 231 251 255 261 265 276 276 289 287 288 295 315 310 319 324 311 313 310 301 300 301 301 298 293 296 288 288 289
208 204 206 209 209 201 200 198 191 195 199 202 203 199 191 186 179 183 182 174 178 180 175 174 170 174 175 176 179 178 176 176 174 178 175 171 168 166 163 163 160 159 158 160 162 165 167 167 174 158 156 157 171 171 189 184 212 227 231 249 252 264 277 270 274 279 296 296 303 311 308 312 304 298 300 298 300 301 295 295 296 286 289 285 282
205 207 206 210 205 201 202 194 197 199 203 201 202 194 191 184 182 183 175 177 177 169 173 172 173 174 179 178 176 177 179 174 174 174 173 171 166 161 163 162 163 163 162 161 166 166 170 174 165 155 157 167 183 178 192 190 208 211 227 231 240 259 262 273 276 277 284 285 293 294 298 296 293 294 296 303 305 296 292 295 296 294 288 275 273
205 207 207 207 204 203 202 196 202 203 203 200 199 193 188 184 182 182 176 174 171 174 171 174 178 180 177 177 177 177 176 176 174 171 168 164 162 163 162 161 159 157 159 160 160 165 163 160 159 160 170 177 189 188 192 199 203 214 228 232 235 242 254 260 263 265 269 274 282 293 288 293 299 284 295 301 302 306 305 291 283 287 288 291 283
203 203 204 205 205 205 200 202 204 204 202 201 194 186 185 184 179 179 175 172 171 172 176 175 180 178 177 172 176 175 174 173 169 166 166 167 166 164 161 157 152 150 147 145 144 146 159 160 165 173 183 190 188 193 195 197 201 210 212 220 228 234 247 253 252 259 263 273 277 276 286 283 279 295 297 286 289 286 298 304 297 287 284 293 297
202 204 203 205 208 208 205 207 204 202 200 194 187 186 181 178 180 174 169 173 175 175 174 176 174 174 174 175 174 169 169 169 166 167 169 169 165 162 161 158 155 151 150 151 155 159 165 170 178 188 191 200 192 197 193 198 201 209 216 210 224 238 247 252 253 256 261 263 266 279 277 283 286 273 280 287 289 279 258 292 296 307 305 293 273
203 204 207 210 213 211 208 205 201 196 190 187 183 183 182 177 173 172 175 176 175 176 173 171 166 169 170 171 166 167 170 175 176 171 159 163 166 163 159 157 155 155 154 155 163 169 178 188 195 198 201 206 213 212 208 206 200 206 211 210 224 234 241 244 241 249 254 256 266 267 275 277 273 280 285 283 272 282 285 290 281 291 294 296 295
202 202 205 212 213 208 200 191 191 188 185 187 188 182 177 174 173 173 176 175 171 169 168 170 170 170 168 168 168 171 179 178 176 173 170 164 161 159 158 160 157 155 152 160 175 185 189 192 199 204 211 216 220 222 224 226 221 210 201 213 219 223 226 232 241 238 242 253 255 265 269 265 267 273 275 265 268 284 288 284 283 292 296 293 287
202 203 210 213 208 190 183 189 182 186 190 184 179 177 177 173 173 173 172 170 169 168 166 168 171 170 169 168 173 179 177 175 177 176 174 169 161 162 162 159 156 158 163 168 174 183 190 195 198 213 219 222 223 227 232 236 243 248 247 238 221 210 210 234 236 233 239 251 256 257 260 268 271 268 268 281 276 278 280 291 293 297 297 300 300
206 210 214 207 192 187 189 180 181 185 176 182 178 176 168 170 174 173 169 169 170 164 169 171 167 166 167 171 176 177 178 180 179 178 176 173 166 150 143 156 159 162 166 171 176 183 191 198 203 203 212 206 197 220 233 239 245 250 254 257 260 260 259 258 265 262 251 253 262 257 268 275 284 286 288 292 294 294 291 289 290 289 291 289 284
211 215 210 195 193 184 178 178 182 177 182 175 170 167 171 172 174 172 176 171 158 167 171 165 170 168 169 172 179 180 179 184 183 180 176 173 166 157 160 155 155 162 166 171 180 190 196 198 199 205 202 214 217 206 198 220 240 250 256 261 264 263 265 266 266 270 280 278 277 277 270 279 283 283 282 286 288 289 289 288 283 283 278 279 277
206 212 201 196 187 182 178 178 180 180 171 167 167 171 173 180 177 171 160 159 169 170 170 172 169 172 175 177 177 177 179 188 185 181 176 171 167 158 158 159 155 160 165 174 187 197 202 202 201 206 189 195 205 210 222 227 230 239 248 252 251 253 256 263 268 271 273 274 275 275 274 266 269 275 279 281 284 282 286 282 282 277 275 268 272
204 201 193 190 177 179 178 177 176 171 170 169 170 175 177 172 169 171 170 173 174 176 173 174 175 173 173 172 171 176 182 190 185 182 178 170 166 153 153 153 157 165 172 181 195 201 206 202 201 198 197 207 208 220 224 230 234 240 244 246 244 242 246 246 245 245 249 254 260 266 273 271 271 275 278 276 271 269 274 276 278 278 278 278 273
201 189 190 187 186 183 177 177 173 169 169 171 174 177 177 176 173 170 167 170 172 165 172 172 170 171 170 169 168 176 183 192 185 182 179 176 167 152 158 162 164 168 174 187 192 194 192 197 197 207 210 212 230 245 252 248 240 242 249 248 251 256 254 256 258 261 263 263 266 272 278 280 281 280 281 280 279 280 276 276 275 272 273 274 272
197 190 193 185 185 181 180 176 174 172 172 173 178 177 175 174 170 162 165 171 170 175 174 171 168 166 167 170 170 174 182 191 184 181 179 178 171 143 158 157 158 159 171 170 182 187 194 199 202 209 221 221 237 254 257 263 265 269 269 271 268 264 262 258 268 280 285 286 286 285 285 284 285 285 285 287 288 292 299 295 286 292 290 285 281
195 188 195 186 182 177 178 177 175 173 173 180 180 177 170 164 169 168 171 169 173 174 163 159 163 167 168 171 174 170 181 188 183 181 179 179 164 153 157 154 151 161 161 176 175 188 203 212 214 214 223 231 243 254 261 269 268 271 277 270 266 263 267 276 285 284 285 284 282 281 282 285 292 295 295 293 291 291 287 279 283 292 280 278 280
189 191 180 159 165 166 170 174 175 174 179 179 172 168 170 169 159 158 166 165 166 157 158 160 160 164 167 165 171 171 175 186 182 180 180 180 167 156 160 162 156 164 169 174 182 190 208 223 231 231 229 235 253 262 266 269 270 263 262 269 277 279 283 292 288 287 277 270 273 286 295 297 298 294 289 288 285 283 278 276 282 274 274 275 274
165 144 146 150 154 156 163 169 171 174 172 163 164 163 152 148 158 164 163 162 157 159 161 162 164 166 160 162 170 166 175 183 181 180 180 181 167 159 159 168 174 169 169 175 188 198 200 215 227 227 238 254 262 263 265 267 265 267 277 280 280 282 293 284 269 269 283 295 296 294 291 293 288 282 278 280 278 273 271 270 271 267 258 261 262
141 141 135 142 151 160 160 171 167 166 164 161 154 151 159 161 158 162 158 156 151 157 161 161 159 161 162 165 159 172 180 174 183 181 181 183 174 166 169 176 169 167 165 174 189 193 204 192 153 221 245 251 255 260 264 268 277 284 282 283 282 282 285 280 295 320 310 301 294 292 288 282 278 276 280 283 283 281 278 273 270 271 278 285 282
128 128 139 143 146 150 155 149 153 153 152 150 153 158 157 155 161 158 158 158 161 162 161 161 160 159 163 165 167 172 186 185 175 182 183 184 181 171 170 174 166 160 172 182 189 191 180 159 136 217 241 249 255 260 268 280 286 288 291 285 284 289 296 311 322 311 301 294 290 282 281 281 279 279 277 276 274 274 276 272 271 271 269 269 273
106 126 136 143 148 150 150 151 153 152 155 159 156 155 153 154 158 160 158 160 162 163 166 166 163 163 166 173 170 173 179 183 182 181 184 184 185 177 173 170 177 170 179 183 176 167 146 141 160 228 238 246 255 269 282 288 296 290 285 286 291 298 309 337 315 303 291 286 281 279 279 279 285 287 288 288 289 285 285 280 279 274 271 270 268
118 126 139 146 143 149 152 153 152 154 156 156 157 154 160 161 162 167 165 164 165 166 174 172 172 172 161 166 165 160 173 173 184 182 184 184 187 181 178 178 181 171 170 168 162 155 143 151 185 219 235 254 274 287 290 292 289 284 286 294 302 311 328 313 298 285 284 282 278 279 280 282 284 287 291 293 293 290 285 281 275 271 269 269 265
133 145 149 150 152 150 149 157 160 160 164 161 160 162 163 165 167 174 170 174 174 175 177 178 182 180 175 176 173 172 174 175 177 183 182 184 186 185 180 180 182 172 164 156 139 140 169 199 209 217 233 315 299 303 312 297 286 283 294 302 310 332 309 286 282 281 281 278 280 281 282 281 285 287 290 292 291 288 282 278 273 270 268 268 266
159 164 157 158 161 153 156 161 166 170 169 173 172 170 168 172 174 175 180 183 181 181 178 182 184 180 184 175 173 172 172 172 174 175 182 182 184 187 184 182 178 167 142 150 158 173 173 131 110 84 70 47 43 20 220 258 279 296 307 315 316 294 277 277 278 280 276 282 282 284 286 290 291 290 291 291 291 288 288 284 285 281 278 276 275
175 174 173 167 162 166 169 170 169 177 181 179 176 172 175 177 176 178 185 185 188 189 184 182 184 183 182 179 168 167 171 174 172 172 173 175 177 182 180 177 174 165 147 142 138 120 113 96 87 93 87 71 9 294 294 302 312 304 290 282 272 266 272 263 264 270 281 283 285 285 288 289 291 293 293 295 291 288 284 284 286 287 286 280 274
192 193 185 176 177 181 183 176 177 165 185 186 184 184 186 185 185 188 187 187 184 189 185 188 189 186 181 173 168 164 175 177 179 175 173 171 173 173 165 159 156 138 139 132 125 118 100 91 80 70 65 39 15 349 300 278 272 271 272 264 266 267 271 285 291 284 278 278 282 288 289 293 294 293 294 293 290 287 285 285 289 290 286 283 278
205 194 186 179 187 188 187 183 189 182 189 194 204 198 189 191 198 204 207 193 190 185 186 192 191 185 176 172 169 174 175 184 189 178 174 174 170 162 159 157 146 143 139 131 113 100 96 92 90 74 77 94 220 246 262 272 270 261 261 267 264 266 275 268 265 272 278 286 289 291 292 293 291 292 292 291 289 287 286 287 285 286 287 279 276
210 207 195 193 190 182 191 190 189 189 193 194 194 203 214 215 218 213 211 213 217 218 203 195 186 172 174 183 177 174 182 183 175 177 175 173 170 163 155 148 147 147 159 147 129 113 110 119 124 127 128 163 203 235 239 244 254 265 264 275 282 284 272 267 270 277 284 284 287 291 291 293 293 294 293 290 290 286 284 288 292 290 287 284 278
223 217 201 204 194 189 188 188 190 192 193 190 190 193 195 212 221 224 223 214 216 217 205 201 186 182 175 166 184 218 175 164 167 167 170 171 169 164 161 160 158 161 146 122 99 123 133 133 140 143 185 183 209 223 238 240 261 268 280 282 277 276 279 277 277 277 282 286 287 285 284 289 290 293 293 291 290 290 291 288 286 289 285 284 282
230 219 210 208 192 191 193 190 184 186 191 188 190 187 190 192 206 216 215 205 203 208 205 195 188 183 183 169 156 147 157 161 162 165 168 169 168 165 162 161 160 152 148 129 109 127 134 139 145 178 182 192 224 225 237 239 249 251 260 282 283 271 271 276 278 281 284 285 285 284 285 287 290 289 290 290 290 290 293 297 297 294 289 283 279
234 232 214 202 197 193 190 189 188 187 186 185 189 187 188 187 188 188 200 201 196 198 200 194 184 180 170 167 165 158 159 161 165 167 170 169 162 158 157 155 151 147 133 113 131 137 144 145 155 174 179 199 216 219 233 235 237 245 247 250 266 276 274 278 285 285 279 278 280 283 289 290 290 292 290 290 291 292 296 295 294 290 289 288 286
234 233 216 202 195 195 196 192 188 191 190 189 188 188 191 188 183 177 170 172 186 192 190 188 184 176 170 164 161 161 159 161 165 168 167 161 154 152 148 142 141 140 128 136 135 146 145 153 166 180 195 205 213 222 235 240 242 239 254 257 258 270 279 284 287 282 279 279 280 284 290 290 291 294 295 292 286 287 291 291 293 292 288 283 285
243 238 227 207 200 201 196 193 192 187 185 187 187 188 189 185 179 180 178 178 177 173 166 172 174 168 164 162 162 160 162 164 164 164 162 155 153 148 131 119 109 87 82 100 131 139 150 158 167 187 191 209 223 218 231 241 244 252 250 260 268 272 281 285 279 281 280 287 292 290 288 291 296 293 289 293 299 299 296 295 293 289 291 289 287
244 240 228 211 207 201 193 194 189 187 185 185 182 184 181 180 183 185 180 177 168 158 153 156 157 164 160 159 161 161 159 157 158 158 157 154 147 129 121 133 120 122 119 130 133 142 139 155 157 187 199 219 229 233 233 238 247 246 257 260 276 279 279 282 282 277 287 292 291 294 297 291 290 293 290 286 289 297 297 296 295 294 291 287 286
245 240 231 211 206 197 194 187 187 185 182 176 177 179 181 183 181 179 177 173 164 159 153 148 145 150 153 157 159 157 155 152 152 152 151 148 135 123 123 137 137 134 135 139 139 140 150 177 173 191 212 219 233 229 239 247 252 260 269 279 275 281 277 268 282 296 298 295 291 290 291 297 298 294 296 299 302 299 295 295 294 292 294 295 298
243 235 230 208 194 196 186 187 184 175 176 176 178 179 179 180 180 179 175 168 164 159 157 159 156 155 152 155 150 146 147 145 138 131 121 100 93 115 127 129 136 139 140 141 147 151 158 170 182 198 225 220 234 245 238 251 257 269 275 278 281 266 290 298 300 292 285 289 292 295 298 299 298 297 297 299 303 303 301 300 298 298 296 292 290
244 242 234 215 201 188 187 179 176 175 178 175 177 177 179 176 176 177 173 167 163 162 160 158 158 155 151 146 138 129 120 114 124 129 121 113 111 121 129 129 126 125 132 140 150 144 148 171 205 214 227 231 235 244 247 260 267 278 279 279 281 282 288 287 288 290 291 290 292 294 296 297 297 296 296 300 302 302 301 297 298 298 298 298 293
254 242 233 214 191 188 178 181 175 176 177 173 177 177 175 176 177 173 167 164 163 160 159 158 157 152 146 135 133 135 134 135 134 142 137 136 134 135 130 135 134 137 142 146 150 151 160 197 204 216 231 236 238 246 255 263 272 274 274 276 279 285 287 287 288 291 292 291 292 294 297 297 296 291 292 297 300 300 303 301 300 296 295 293 295
247 231 215 206 179 178 173 175 179 178 176 174 176 173 179 174 169 163 162 161 157 153 150 150 143 141 135 143 148 141 134 139 143 141 140 137 140 137 133 132 135 132 136 144 156 160 174 191 214 220 234 241 245 250 262 268 270 271 273 278 282 281 284 283 283 286 288 292 293 297 297 297 293 295 300 303 306 306 300 297 296 295 297 294 296
237 217 184 181 177 166 164 174 175 172 172 173 175 174 172 168 162 159 157 154 149 145 138 135 136 135 147 145 139 131 123 131 131 127 127 133 135 133 129 125 129 134 141 155 163 164 178 195 217 219 230 246 250 259 262 263 261 264 271 280 281 282 282 283 286 284 288 291 297 296 297 296 297 300 301 306 305 301 299 296 297 297 299 299 298
223 190 178 169 171 167 167 169 164 166 168 168 167 163 158 154 152 150 148 147 147 145 142 141 145 148 144 139 129 122 116 129 126 127 128 132 131 130 133 136 138 144 152 163 158 158 168 191 218 230 228 237 236 244 246 252 253 267 270 273 278 280 283 286 289 287 288 293 296 295 296 294 293 297 304 303 300 300 298 300 303 301 300 297 300
180 161 161 161 158 149 156 155 161 163 165 160 154 154 153 152 151 152 150 147 143 140 144 148 151 145 136 127 122 120 128 132 135 131 134 131 132 133 135 136 134 138 157 154 160 165 173 198 228 245 248 250 251 248 248 246 248 249 262 268 273 280 285 288 288 291 294 297 295 290 292 290 295 303 301 302 302 303 305 304 305 304 306 304 301
150 156 151 148 149 149 151 153 153 152 146 147 149 149 151 150 150 146 143 141 137 139 147 146 129 120 122 130 131 131 132 131 129 131 132 134 133 134 135 139 144 152 147 157 166 161 181 207 222 243 262 259 252 249 252 253 248 244 246 257 264 275 280 282 284 288 291 290 286 289 290 293 305 306 303 301 304 305 304 305 306 305 305 303 307
137 137 138 138 138 141 143 145 145 143 147 147 144 141 139 139 139 139 138 137 140 144 140 127 122 121 129 127 128 128 130 126 126 127 128 129 129 132 133 140 144 144 149 169 175 180 197 203 213 229 245 257 263 261 259 259 261 256 253 247 256 262 267 276 280 286 290 293 290 286 291 304 307 303 305 306 304 303 300 302 304 302 303 304 303
113 122 128 132 135 133 133 137 139 141 138 138 137 135 136 135 133 131 131 132 132 133 132 129 122 121 132 131 135 130 127 124 130 132 137 136 131 131 135 140 137 145 173 189 186 199 215 230 233 236 245 255 264 269 275 271 270 268 265 262 260 269 271 276 286 292 293 290 283 285 303 311 307 308 305 306 305 305 304 303 306 306 305 304 306
101 104 106 112 116 121 125 127 125 124 126 128 127 128 128 127 129 129 128 129 130 132 124 119 115 119 122 122 125 117 120 122 123 128 128 134 135 136 142 148 153 166 168 168 203 205 223 236 245 248 256 263 269 276 277 280 279 276 276 273 271 268 277 284 289 289 283 281 290 301 311 311 307 305 305 307 308 308 309 309 309 308 309 308 306
88 97 104 107 112 117 124 125 127 128 126 123 121 122 126 129 130 129 131 132 132 130 134 126 111 118 118 119 98 104 119 122 128 131 130 131 138 151 153 157 158 159 151 171 198 221 239 250 250 253 252 263 263 270 275 278 280 280 279 279 280 283 286 289 288 280 291 295 301 308 312 308 304 304 305 309 308 308 307 306 308 309 309 308 311
83 86 95 98 101 101 100 104 109 114 115 121 123 123 126 132 134 136 132 127 128 127 114 103 114 132 134 131 121 118 128 133 135 137 137 137 145 157 161 159 151 154 157 176 202 219 234 240 247 253 256 258 262 263 265 270 272 275 276 277 282 287 291 296 301 304 305 310 311 318 314 307 303 303 307 310 311 311 312 313 313 313 312 312 315
85 88 88 90 96 101 104 107 108 110 116 121 122 129 132 134 135 129 114 124 120 121 125 128 134 132 124 123 126 128 132 131 133 132 139 147 158 162 168 161 158 154 170 183 225 237 246 251 259 259 266 266 269 266 268 266 269 267 273 277 284 294 304 309 310 313 315 317 323 322 314 310 305 307 310 314 314 314 312 312 314 315 316 316 318